Location: Commenchon
(49.6411°N, 3.1571°E)
Time: 07:52:52
(UTC+00:00)

Cosmos 2297 Rocket - Pass Details

Date: 15 May 2026
Orbit: 839 x 842 km, 71.0° (Epoch: 5 June)

Event Time Altitude Azimuth Distance (km) Brightness Sun altitude
Exits shadow 21:46:21 11° 99° (E) 2,422 4.2 -16.6°
Maximum altitude 21:46:50 11° 94° (E) 2,415 4.3 -16.6°
Drops below altitude 10° 21:47:57 10° 82° (E) 2,459 4.4 -16.7°
Sets 21:52:45 0° 46° (NE) 3,402 5.6 -17.0°
